Location: Vlissingen
(51.4500°N, 3.5830°E)
Time: 11:23:20
(UTC+01:00)

N. Korean satellite - Pass Details

Date: 09 December 2021
Orbit: 447 x 491 km, 97.3° (Epoch: 20 January)

Event Time Altitude Azimuth Distance (km) Brightness Sun altitude
Rises 06:32:08 0° 9° (N) 2,467 10.1 -18.6°
Reaches altitude 10° 06:34:12 10° 4° (N) 1,588 9.1 -18.2°
Maximum altitude 06:37:30 52° 288° (WNW) 570 6.5 -17.7°
Drops below altitude 10° 06:40:47 10° 211° (SSW) 1,575 9.0 -17.3°
Sets 06:42:50 0° 206° (SSW) 2,445 10.0 -16.9°
